date,time,SUV Intensity [MED/Hr],UV Index,Daily total [MED],Since Last [MED]
11/08/2022,00:11:29,-0.000,0.0,0.0,0.0
11/08/2022,00:12:30,-0.001,0.0,0.0,0.0
11/08/2022,00:13:38,0.000,0.0,0.0,0.0
11/08/2022,00:14:29,0.000,0.0,0.0,0.0
11/08/2022,00:15:30,0.000,0.0,0.0,0.0
11/08/2022,00:16:30,0.000,0.0,0.0,0.0
11/08/2022,00:17:30,0.000,0.0,0.0,0.0
11/08/2022,00:18:30,0.000,0.0,0.0,0.0
11/08/2022,00:19:38,0.001,0.0,0.0,0.0
11/08/2022,00:20:29,0.000,0.0,0.0,0.0
11/08/2022,00:21:30,0.001,0.0,0.0,0.0
11/08/2022,00:22:30,0.000,0.0,0.0,0.0
11/08/2022,00:23:30,0.000,0.0,0.0,0.0
11/08/2022,00:24:39,0.000,0.0,0.0,0.0
11/08/2022,00:25:30,-0.000,0.0,0.0,0.0
11/08/2022,00:26:30,0.001,0.0,0.0,0.0
11/08/2022,00:27:38,0.000,0.0,0.0,0.0
11/08/2022,00:28:30,0.001,0.0,0.0,0.0
11/08/2022,00:29:30,0.000,0.0,0.0,0.0
11/08/2022,00:30:30,0.000,0.0,0.0,0.0
11/08/2022,00:31:30,0.000,0.0,0.0,0.0
11/08/2022,00:32:30,0.000,0.0,0.0,0.0
11/08/2022,00:33:30,0.001,0.0,0.0,0.0
11/08/2022,00:34:30,0.001,0.0,0.0,0.0
11/08/2022,00:35:30,0.001,0.0,0.0,0.0
11/08/2022,00:36:23,0.001,0.0,0.0,0.0
11/08/2022,00:37:32,0.001,0.0,0.0,0.0
11/08/2022,00:38:30,0.000,0.0,0.0,0.0
11/08/2022,00:39:30,0.001,0.0,0.0,0.0
11/08/2022,00:40:30,0.000,0.0,0.0,0.0
11/08/2022,00:41:30,0.001,0.0,0.0,0.0
11/08/2022,00:42:30,0.001,0.0,0.0,0.0
11/08/2022,00:43:29,0.001,0.0,0.0,0.0
11/08/2022,00:44:30,0.001,0.0,0.0,0.0
11/08/2022,00:45:30,0.001,0.0,0.0,0.0
11/08/2022,00:46:30,0.001,0.0,0.0,0.0
11/08/2022,00:47:30,0.001,0.0,0.0,0.0
11/08/2022,00:48:31,0.001,0.0,0.0,0.0
11/08/2022,00:49:30,0.001,0.0,0.0,0.0
11/08/2022,00:50:30,0.001,0.0,0.0,0.0
11/08/2022,00:51:30,0.001,0.0,0.0,0.0
11/08/2022,00:52:30,0.001,0.0,0.0,0.0
11/08/2022,00:53:30,0.001,0.0,0.0,0.0
11/08/2022,00:54:30,0.001,0.0,0.0,0.0
11/08/2022,00:55:30,0.001,0.0,0.0,0.0
11/08/2022,00:56:30,0.001,0.0,0.0,0.0
11/08/2022,00:57:30,0.001,0.0,0.0,0.0
11/08/2022,00:58:30,0.001,0.0,0.0,0.0
11/08/2022,00:59:30,0.001,0.0,0.0,0.0
11/08/2022,01:00:30,0.001,0.0,0.0,0.0
11/08/2022,01:01:30,0.001,0.0,0.0,0.0
11/08/2022,01:02:30,0.001,0.0,0.0,0.0
11/08/2022,01:03:38,0.001,0.0,0.0,0.0
11/08/2022,01:04:30,0.001,0.0,0.0,0.0
11/08/2022,01:05:30,0.001,0.0,0.0,0.0
11/08/2022,01:06:39,0.001,0.0,0.0,0.0
11/08/2022,01:07:30,0.001,0.0,0.0,0.0
11/08/2022,01:08:31,0.001,0.0,0.0,0.0
11/08/2022,01:09:30,0.001,0.0,0.0,0.0
11/08/2022,01:10:30,0.001,0.0,0.0,0.0
11/08/2022,01:11:30,0.001,0.0,0.0,0.0
11/08/2022,01:12:31,0.001,0.0,0.0,0.0
11/08/2022,01:13:30,0.001,0.0,0.0,0.0
11/08/2022,01:14:38,0.001,0.0,0.0,0.0
11/08/2022,01:15:30,0.001,0.0,0.0,0.0
11/08/2022,01:16:30,0.001,0.0,0.0,0.0
11/08/2022,01:17:38,0.001,0.0,0.0,0.0
11/08/2022,01:18:29,0.001,0.0,0.0,0.0
11/08/2022,01:19:30,0.001,0.0,0.0,0.0
11/08/2022,01:20:39,0.001,0.0,0.0,0.0
11/08/2022,01:21:30,0.001,0.0,0.0,0.0
11/08/2022,01:22:39,0.001,0.0,0.0,0.0
11/08/2022,01:23:29,0.001,0.0,0.0,0.0
11/08/2022,01:24:30,0.000,0.0,0.0,0.0
11/08/2022,01:25:39,0.000,0.0,0.0,0.0
11/08/2022,01:26:30,0.001,0.0,0.0,0.0
11/08/2022,01:27:30,0.001,0.0,0.0,0.0
11/08/2022,01:28:31,0.001,0.0,0.0,0.0
11/08/2022,01:29:30,0.001,0.0,0.0,0.0
11/08/2022,01:30:30,0.001,0.0,0.0,0.0
11/08/2022,01:31:30,0.001,0.0,0.0,0.0
11/08/2022,01:32:30,0.001,0.0,0.0,0.0
11/08/2022,01:33:30,0.001,0.0,0.0,0.0
11/08/2022,01:34:30,0.001,0.0,0.0,0.0
11/08/2022,01:35:30,0.001,0.0,0.0,0.0
11/08/2022,01:36:30,0.001,0.0,0.0,0.0
11/08/2022,01:37:30,0.001,0.0,0.0,0.0
11/08/2022,01:38:30,0.001,0.0,0.0,0.0
11/08/2022,01:39:30,0.001,0.0,0.0,0.0
11/08/2022,01:40:30,0.001,0.0,0.0,0.0
11/08/2022,01:41:30,0.001,0.0,0.0,0.0
11/08/2022,01:42:30,0.001,0.0,0.0,0.0
11/08/2022,01:43:30,0.001,0.0,0.0,0.0
11/08/2022,01:44:30,0.001,0.0,0.0,0.0
11/08/2022,01:45:30,0.001,0.0,0.0,0.0
11/08/2022,01:46:30,0.001,0.0,0.0,0.0
11/08/2022,01:47:30,0.001,0.0,0.0,0.0
11/08/2022,01:48:30,0.001,0.0,0.0,0.0
11/08/2022,01:49:30,0.001,0.0,0.0,0.0
11/08/2022,01:50:30,0.001,0.0,0.0,0.0
11/08/2022,01:51:30,0.001,0.0,0.0,0.0
11/08/2022,01:52:30,0.001,0.0,0.0,0.0
11/08/2022,01:53:30,0.001,0.0,0.0,0.0
11/08/2022,01:54:30,0.001,0.0,0.0,0.0
11/08/2022,01:55:31,0.001,0.0,0.0,0.0
11/08/2022,01:56:38,0.001,0.0,0.0,0.0
11/08/2022,01:57:30,0.001,0.0,0.0,0.0
11/08/2022,01:58:32,0.001,0.0,0.0,0.0
11/08/2022,01:59:30,0.001,0.0,0.0,0.0
11/08/2022,02:00:30,0.001,0.0,0.0,0.0
11/08/2022,02:01:30,0.001,0.0,0.0,0.0
11/08/2022,02:02:30,0.001,0.0,0.0,0.0
11/08/2022,02:03:30,0.001,0.0,0.0,0.0
11/08/2022,02:04:30,0.001,0.0,0.0,0.0
11/08/2022,02:05:30,0.001,0.0,0.0,0.0
11/08/2022,02:06:30,0.001,0.0,0.0,0.0
11/08/2022,02:07:32,0.001,0.0,0.0,0.0
11/08/2022,02:08:30,0.001,0.0,0.0,0.0
11/08/2022,02:09:30,0.001,0.0,0.0,0.0
11/08/2022,02:10:30,0.001,0.0,0.0,0.0
11/08/2022,02:11:30,0.001,0.0,0.0,0.0
11/08/2022,02:12:30,0.001,0.0,0.0,0.0
11/08/2022,02:13:30,0.001,0.0,0.0,0.0
11/08/2022,02:14:32,0.001,0.0,0.0,0.0
11/08/2022,02:15:30,0.002,0.0,0.0,0.0
11/08/2022,02:16:30,0.001,0.0,0.0,0.0
11/08/2022,02:17:30,0.001,0.0,0.0,0.0
11/08/2022,02:18:30,0.001,0.0,0.0,0.0
11/08/2022,02:19:30,0.002,0.0,0.0,0.0
11/08/2022,02:20:30,0.002,0.0,0.0,0.0
11/08/2022,02:21:30,0.001,0.0,0.0,0.0
11/08/2022,02:22:30,0.002,0.0,0.0,0.0
11/08/2022,02:23:31,0.001,0.0,0.0,0.0
11/08/2022,02:24:38,0.001,0.0,0.0,0.0
11/08/2022,02:25:30,0.002,0.0,0.0,0.0
11/08/2022,02:26:30,0.002,0.0,0.0,0.0
11/08/2022,02:27:38,0.002,0.0,0.0,0.0
11/08/2022,02:28:30,0.001,0.0,0.0,0.0
11/08/2022,02:29:30,0.002,0.0,0.0,0.0
11/08/2022,02:30:30,0.002,0.0,0.0,0.0
11/08/2022,02:31:30,0.001,0.0,0.0,0.0
11/08/2022,02:32:38,0.002,0.0,0.0,0.0
11/08/2022,02:33:30,0.002,0.0,0.0,0.0
11/08/2022,02:34:30,0.002,0.0,0.0,0.0
11/08/2022,02:35:38,0.002,0.0,0.0,0.0
11/08/2022,02:36:29,0.002,0.0,0.0,0.0
11/08/2022,02:37:30,0.002,0.0,0.0,0.0
11/08/2022,02:38:38,0.003,0.0,0.0,0.0
11/08/2022,02:39:29,0.002,0.0,0.0,0.0
11/08/2022,02:40:30,0.002,0.0,0.0,0.0
11/08/2022,02:41:39,0.001,0.0,0.0,0.0
11/08/2022,02:42:30,0.002,0.0,0.0,0.0
11/08/2022,02:43:30,0.002,0.0,0.0,0.0
11/08/2022,02:44:30,0.001,0.0,0.0,0.0
11/08/2022,02:45:30,0.001,0.0,0.0,0.0
11/08/2022,02:46:30,0.003,0.0,0.0,0.0
11/08/2022,02:47:30,0.002,0.0,0.0,0.0
11/08/2022,02:48:46,0.001,0.0,0.0,0.0
11/08/2022,02:50:32,0.001,0.0,0.0,0.0
11/08/2022,02:51:30,0.002,0.0,0.0,0.0
11/08/2022,02:52:36,0.002,0.0,0.0,0.0
11/08/2022,02:53:29,0.002,0.0,0.0,0.0
11/08/2022,02:54:31,0.001,0.0,0.0,0.0
11/08/2022,02:55:38,0.002,0.0,0.0,0.0
11/08/2022,02:56:30,0.001,0.0,0.0,0.0
11/08/2022,02:57:30,0.001,0.0,0.0,0.0
11/08/2022,02:58:30,0.001,0.0,0.0,0.0
11/08/2022,02:59:31,0.001,0.0,0.0,0.0
11/08/2022,03:00:30,0.001,0.0,0.0,0.0
11/08/2022,03:01:30,0.002,0.0,0.0,0.0
11/08/2022,03:02:30,0.002,0.0,0.0,0.0
11/08/2022,03:03:30,0.002,0.0,0.0,0.0
11/08/2022,03:04:30,0.002,0.0,0.0,0.0
11/08/2022,03:05:30,0.002,0.0,0.0,0.0
11/08/2022,03:06:30,0.001,0.0,0.0,0.0
11/08/2022,03:07:30,0.002,0.0,0.0,0.0
11/08/2022,03:08:30,0.002,0.0,0.0,0.0
11/08/2022,03:09:30,0.002,0.0,0.0,0.0
11/08/2022,03:10:30,0.001,0.0,0.0,0.0
11/08/2022,03:11:30,0.002,0.0,0.0,0.0
11/08/2022,03:12:30,0.002,0.0,0.0,0.0
11/08/2022,03:13:30,0.001,0.0,0.0,0.0
11/08/2022,03:14:30,0.002,0.0,0.0,0.0
11/08/2022,03:15:53,0.002,0.0,0.0,0.0
11/08/2022,03:17:30,0.002,0.0,0.0,0.0
11/08/2022,03:18:40,0.002,0.0,0.0,0.0
11/08/2022,03:19:30,0.002,0.0,0.0,0.0
11/08/2022,03:20:30,0.001,0.0,0.0,0.0
11/08/2022,03:21:43,0.001,0.0,0.0,0.0
11/08/2022,03:23:31,0.002,0.0,0.0,0.0
11/08/2022,03:24:30,0.002,0.0,0.0,0.0
11/08/2022,03:25:30,0.002,0.0,0.0,0.0
11/08/2022,03:26:31,0.002,0.0,0.0,0.0
11/08/2022,03:27:31,0.001,0.0,0.0,0.0
11/08/2022,03:28:30,0.001,0.0,0.0,0.0
11/08/2022,03:29:30,0.001,0.0,0.0,0.0
11/08/2022,03:30:30,0.002,0.0,0.0,0.0
11/08/2022,03:31:30,0.002,0.0,0.0,0.0
11/08/2022,03:32:30,0.002,0.0,0.0,0.0
11/08/2022,03:33:30,0.003,0.0,0.0,0.0
11/08/2022,03:34:30,0.002,0.0,0.0,0.0
11/08/2022,03:35:30,0.001,0.0,0.0,0.0
11/08/2022,03:36:30,0.002,0.0,0.0,0.0
11/08/2022,03:37:30,0.001,0.0,0.0,0.0
11/08/2022,03:38:30,0.002,0.0,0.0,0.0
11/08/2022,03:39:31,0.002,0.0,0.0,0.0
11/08/2022,03:40:30,0.002,0.0,0.0,0.0
11/08/2022,03:41:30,0.001,0.0,0.0,0.0
11/08/2022,03:42:30,0.002,0.0,0.0,0.0
11/08/2022,03:43:30,0.002,0.0,0.0,0.0
11/08/2022,03:44:30,0.002,0.0,0.0,0.0
11/08/2022,03:45:30,0.001,0.0,0.0,0.0
11/08/2022,03:46:30,0.002,0.0,0.0,0.0
11/08/2022,03:47:31,0.002,0.0,0.0,0.0
11/08/2022,03:48:30,0.001,0.0,0.0,0.0
11/08/2022,03:49:31,0.002,0.0,0.0,0.0
11/08/2022,03:50:30,0.002,0.0,0.0,0.0
11/08/2022,03:51:30,0.003,0.0,0.0,0.0
11/08/2022,03:52:38,0.002,0.0,0.0,0.0
11/08/2022,03:53:32,0.002,0.0,0.0,0.0
11/08/2022,03:54:38,0.002,0.0,0.0,0.0
11/08/2022,03:55:31,0.002,0.0,0.0,0.0
11/08/2022,03:56:30,0.002,0.0,0.0,0.0
11/08/2022,03:57:38,0.002,0.0,0.0,0.0
11/08/2022,03:58:30,0.002,0.0,0.0,0.0
11/08/2022,03:59:31,0.002,0.0,0.0,0.0
11/08/2022,04:00:30,0.002,0.0,0.0,0.0
11/08/2022,04:01:30,0.002,0.0,0.0,0.0
11/08/2022,04:02:30,0.002,0.0,0.0,0.0
11/08/2022,04:03:30,0.003,0.0,0.0,0.0
11/08/2022,04:04:30,0.002,0.0,0.0,0.0
11/08/2022,04:05:30,0.003,0.0,0.0,0.0
11/08/2022,04:06:30,0.002,0.0,0.0,0.0
11/08/2022,04:07:30,0.002,0.0,0.0,0.0
11/08/2022,04:08:30,0.002,0.0,0.0,0.0
11/08/2022,04:09:30,0.002,0.0,0.0,0.0
11/08/2022,04:10:30,0.002,0.0,0.0,0.0
11/08/2022,04:11:30,0.002,0.0,0.0,0.0
11/08/2022,04:12:30,0.002,0.0,0.0,0.0
11/08/2022,04:13:30,0.002,0.0,0.0,0.0
11/08/2022,04:14:30,0.002,0.0,0.0,0.0
11/08/2022,04:15:30,0.002,0.0,0.0,0.0
11/08/2022,04:16:30,0.001,0.0,0.0,0.0
11/08/2022,04:17:39,0.002,0.0,0.0,0.0
11/08/2022,04:18:30,0.002,0.0,0.0,0.0
11/08/2022,04:19:31,0.002,0.0,0.0,0.0
11/08/2022,04:20:38,0.002,0.0,0.0,0.0
11/08/2022,04:21:30,0.002,0.0,0.0,0.0
11/08/2022,04:22:31,0.002,0.0,0.0,0.0
11/08/2022,04:23:30,0.002,0.0,0.0,0.0
11/08/2022,04:24:30,0.002,0.0,0.0,0.0
11/08/2022,04:25:30,0.001,0.0,0.0,0.0
11/08/2022,04:26:30,0.002,0.0,0.0,0.0
11/08/2022,04:27:30,0.003,0.0,0.0,0.0
11/08/2022,04:28:30,0.002,0.0,0.0,0.0
11/08/2022,04:29:30,0.002,0.0,0.0,0.0
11/08/2022,04:30:31,0.003,0.0,0.0,0.0
11/08/2022,04:31:30,0.001,0.0,0.0,0.0
11/08/2022,04:32:31,0.003,0.0,0.0,0.0
11/08/2022,04:33:30,0.002,0.0,0.0,0.0
11/08/2022,04:34:31,0.003,0.0,0.0,0.0
11/08/2022,04:35:30,0.002,0.0,0.0,0.0
11/08/2022,04:36:30,0.002,0.0,0.0,0.0
11/08/2022,04:37:30,0.002,0.0,0.0,0.0
11/08/2022,04:38:31,0.002,0.0,0.0,0.0
11/08/2022,04:39:30,0.003,0.0,0.0,0.0
11/08/2022,04:40:30,0.004,0.0,0.0,0.0
11/08/2022,04:41:30,0.003,0.0,0.0,0.0
11/08/2022,04:42:30,0.002,0.0,0.0,0.0
11/08/2022,04:43:39,0.003,0.0,0.0,0.0
11/08/2022,04:44:29,0.003,0.0,0.0,0.0
11/08/2022,04:45:30,0.004,0.0,0.0,0.0
11/08/2022,04:46:39,0.003,0.0,0.0,0.0
11/08/2022,04:47:30,0.004,0.0,0.0,0.0
11/08/2022,04:48:30,0.002,0.0,0.0,0.0
11/08/2022,04:49:30,0.004,0.0,0.0,0.0
11/08/2022,04:50:30,0.003,0.0,0.0,0.0
11/08/2022,04:51:30,0.004,0.0,0.0,0.0
11/08/2022,04:52:31,0.005,0.0,0.0,0.0
11/08/2022,04:53:30,0.005,0.0,0.0,0.0
11/08/2022,04:54:30,0.005,0.0,0.0,0.0
11/08/2022,04:55:31,0.005,0.0,0.0,0.0
11/08/2022,04:56:38,0.005,0.0,0.0,0.0
11/08/2022,04:57:39,0.005,0.0,0.0,0.0
11/08/2022,04:58:30,0.005,0.0,0.0,0.0
11/08/2022,04:59:30,0.005,0.0,0.0,0.0
11/08/2022,05:00:30,0.006,0.0,0.0,0.0
11/08/2022,05:01:30,0.006,0.0,0.0,0.0
11/08/2022,05:02:31,0.006,0.0,0.0,0.0
11/08/2022,05:03:30,0.006,0.0,0.0,0.0
11/08/2022,05:04:30,0.008,0.0,0.0,0.0
11/08/2022,05:05:31,0.008,0.0,0.0,0.0
11/08/2022,05:06:39,0.008,0.0,0.001,0.001
11/08/2022,05:07:30,0.008,0.0,0.001,0.0
11/08/2022,05:08:30,0.008,0.0,0.001,0.0
11/08/2022,05:09:39,0.008,0.0,0.001,0.0
11/08/2022,05:10:29,0.009,0.0,0.001,0.0
11/08/2022,05:11:31,0.009,0.0,0.001,0.0
11/08/2022,05:12:31,0.009,0.0,0.001,0.0
11/08/2022,05:13:30,0.011,0.0,0.002,0.001
11/08/2022,05:14:39,0.010,0.0,0.002,0.0
11/08/2022,05:15:30,0.010,0.0,0.002,0.0
11/08/2022,05:16:31,0.011,0.0,0.002,0.0
11/08/2022,05:17:30,0.012,0.0,0.002,0.0
11/08/2022,05:18:30,0.013,0.0,0.002,0.0
11/08/2022,05:19:31,0.011,0.0,0.003,0.001
11/08/2022,05:20:30,0.013,0.0,0.003,0.0
11/08/2022,05:21:30,0.013,0.0,0.003,0.0
11/08/2022,05:22:31,0.014,0.0,0.003,0.0
11/08/2022,05:23:31,0.014,0.0,0.004,0.001
11/08/2022,05:24:30,0.015,0.0,0.004,0.0
11/08/2022,05:25:30,0.016,0.0,0.004,0.0
11/08/2022,05:26:31,0.016,0.0,0.004,0.0
11/08/2022,05:27:31,0.015,0.0,0.005,0.001
11/08/2022,05:28:30,0.017,0.0,0.005,0.0
11/08/2022,05:29:39,0.018,0.0,0.005,0.0
11/08/2022,05:30:31,0.019,0.0,0.005,0.0
11/08/2022,05:31:30,0.019,0.0,0.006,0.001
11/08/2022,05:32:30,0.020,0.0,0.006,0.0
11/08/2022,05:33:31,0.020,0.0,0.006,0.0
11/08/2022,05:34:31,0.021,0.0,0.007,0.001
11/08/2022,05:35:39,0.022,0.0,0.007,0.0
11/08/2022,05:36:29,0.023,0.0,0.007,0.0
11/08/2022,05:37:30,0.023,0.0,0.008,0.001
11/08/2022,05:38:31,0.023,0.0,0.008,0.0
11/08/2022,05:39:30,0.025,0.0,0.009,0.001
11/08/2022,05:40:38,0.026,0.0,0.009,0.0
11/08/2022,05:41:31,0.026,0.0,0.01,0.001
11/08/2022,05:42:31,0.028,0.0,0.01,0.0
11/08/2022,05:43:30,0.029,0.0,0.01,0.0
11/08/2022,05:44:31,0.029,0.0,0.011,0.001
11/08/2022,05:45:31,0.030,0.0,0.011,0.0
11/08/2022,05:46:30,0.031,0.0,0.012,0.001
11/08/2022,05:47:31,0.032,0.0,0.012,0.0
11/08/2022,05:48:30,0.033,0.0,0.013,0.001
11/08/2022,05:49:30,0.035,0.0,0.014,0.001
11/08/2022,05:50:30,0.035,0.0,0.014,0.0
11/08/2022,05:51:31,0.036,0.0,0.015,0.001
11/08/2022,05:52:30,0.037,0.0,0.015,0.0
11/08/2022,05:53:30,0.039,0.0,0.016,0.001
11/08/2022,05:54:30,0.039,0.0,0.017,0.001
11/08/2022,05:55:39,0.040,0.0,0.017,0.0
11/08/2022,05:56:31,0.041,0.0,0.018,0.001
11/08/2022,05:57:31,0.043,0.0,0.019,0.001
11/08/2022,05:58:31,0.044,0.0,0.019,0.0
11/08/2022,05:59:30,0.044,0.0,0.02,0.001
11/08/2022,06:00:30,0.046,0.0,0.021,0.001
11/08/2022,06:01:30,0.047,0.0,0.022,0.001
11/08/2022,06:02:30,0.050,0.0,0.022,0.0
11/08/2022,06:03:30,0.051,0.0,0.023,0.001
11/08/2022,06:04:30,0.051,0.0,0.024,0.001
11/08/2022,06:05:30,0.054,0.0,0.025,0.001
11/08/2022,06:06:39,0.054,0.0,0.026,0.001
11/08/2022,06:07:30,0.055,0.0,0.027,0.001
11/08/2022,06:08:31,0.057,0.0,0.028,0.001
11/08/2022,06:09:30,0.059,0.0,0.029,0.001
11/08/2022,06:10:30,0.060,0.0,0.03,0.001
11/08/2022,06:11:30,0.061,0.0,0.031,0.001
11/08/2022,06:12:30,0.062,0.0,0.032,0.001
11/08/2022,06:13:31,0.065,0.0,0.033,0.001
11/08/2022,06:14:24,0.066,0.0,0.034,0.001
11/08/2022,06:15:31,0.068,0.0,0.035,0.001
11/08/2022,06:16:30,0.070,0.0,0.036,0.001
11/08/2022,06:17:30,0.071,0.0,0.037,0.001
11/08/2022,06:18:31,0.073,0.0,0.038,0.001
11/08/2022,06:19:31,0.074,0.0,0.04,0.002
11/08/2022,06:20:31,0.077,0.0,0.041,0.001
11/08/2022,06:21:39,0.077,0.0,0.042,0.001
11/08/2022,06:22:30,0.080,0.0,0.043,0.001
11/08/2022,06:23:30,0.082,0.0,0.045,0.002
11/08/2022,06:24:30,0.084,0.0,0.046,0.001
11/08/2022,06:25:30,0.085,0.0,0.048,0.002
11/08/2022,06:26:31,0.087,0.0,0.049,0.001
11/08/2022,06:27:39,0.089,0.0,0.051,0.002
11/08/2022,06:28:30,0.091,0.0,0.052,0.001
11/08/2022,06:29:30,0.093,0.0,0.054,0.002
11/08/2022,06:30:30,0.095,0.0,0.055,0.001
11/08/2022,06:31:30,0.097,0.0,0.057,0.002
11/08/2022,06:32:39,0.099,0.0,0.059,0.002
11/08/2022,06:33:31,0.100,0.0,0.06,0.001
11/08/2022,06:34:31,0.105,0.0,0.062,0.002
11/08/2022,06:35:39,0.111,0.0,0.064,0.002
11/08/2022,06:36:30,0.113,0.0,0.065,0.001
11/08/2022,06:37:31,0.115,0.0,0.067,0.002
11/08/2022,06:38:31,0.117,0.0,0.069,0.002
11/08/2022,06:39:30,0.120,0.0,0.071,0.002
11/08/2022,06:40:30,0.123,0.0,0.073,0.002
11/08/2022,06:41:30,0.126,0.0,0.075,0.002
11/08/2022,06:42:31,0.128,0.0,0.077,0.002
11/08/2022,06:43:30,0.131,0.0,0.08,0.003
11/08/2022,06:44:31,0.134,0.0,0.082,0.002
11/08/2022,06:45:30,0.136,0.0,0.084,0.002
11/08/2022,06:46:31,0.139,0.0,0.086,0.002
11/08/2022,06:47:30,0.143,0.0,0.089,0.003
11/08/2022,06:48:30,0.145,0.0,0.091,0.002
11/08/2022,06:49:31,0.147,0.0,0.093,0.002
11/08/2022,06:50:39,0.152,0.0,0.096,0.003
11/08/2022,06:51:30,0.153,0.0,0.098,0.002
11/08/2022,06:52:31,0.157,0.0,0.101,0.003
11/08/2022,06:53:32,0.160,0.0,0.104,0.003
11/08/2022,06:54:30,0.163,0.0,0.106,0.002
11/08/2022,06:55:31,0.166,0.0,0.109,0.003
11/08/2022,06:56:39,0.170,0.0,0.112,0.003
11/08/2022,06:57:31,0.173,0.0,0.115,0.003
11/08/2022,06:58:29,0.176,0.0,0.118,0.003
11/08/2022,06:59:31,0.179,0.0,0.121,0.003
11/08/2022,07:00:30,0.182,0.0,0.124,0.003
11/08/2022,07:01:30,0.186,0.0,0.127,0.003
11/08/2022,07:02:31,0.190,0.0,0.13,0.003
11/08/2022,07:03:30,0.192,0.0,0.133,0.003
11/08/2022,07:04:30,0.197,0.0,0.136,0.003
11/08/2022,07:05:30,0.201,0.0,0.14,0.004
11/08/2022,07:06:31,0.205,0.0,0.143,0.003
11/08/2022,07:07:30,0.208,0.0,0.146,0.003
11/08/2022,07:08:31,0.212,0.0,0.15,0.004
11/08/2022,07:09:32,0.217,0.0,0.154,0.004
11/08/2022,07:10:31,0.220,1.0,0.157,0.003
11/08/2022,07:11:30,0.224,1.0,0.161,0.004
11/08/2022,07:12:30,0.228,1.0,0.164,0.003
11/08/2022,07:13:30,0.231,1.0,0.168,0.004
11/08/2022,07:14:30,0.236,1.0,0.172,0.004
11/08/2022,07:15:31,0.242,1.0,0.176,0.004
11/08/2022,07:16:39,0.246,1.0,0.181,0.005
11/08/2022,07:17:30,0.249,1.0,0.184,0.003
11/08/2022,07:18:31,0.254,1.0,0.189,0.005
11/08/2022,07:19:31,0.258,1.0,0.193,0.004
11/08/2022,07:20:31,0.263,1.0,0.197,0.004
11/08/2022,07:21:32,0.267,1.0,0.202,0.005
11/08/2022,07:22:31,0.272,1.0,0.206,0.004
11/08/2022,07:23:31,0.276,1.0,0.211,0.005
11/08/2022,07:24:39,0.280,1.0,0.216,0.005
11/08/2022,07:25:30,0.285,1.0,0.22,0.004
11/08/2022,07:26:31,0.291,1.0,0.225,0.005
11/08/2022,07:27:30,0.294,1.0,0.23,0.005
11/08/2022,07:28:31,0.300,1.0,0.235,0.005
11/08/2022,07:29:30,0.304,1.0,0.24,0.005
11/08/2022,07:30:30,0.309,1.0,0.245,0.005
11/08/2022,07:31:31,0.313,1.0,0.25,0.005
11/08/2022,07:32:30,0.319,1.0,0.255,0.005
11/08/2022,07:33:31,0.324,1.0,0.261,0.006
11/08/2022,07:34:30,0.329,1.0,0.266,0.005
11/08/2022,07:35:31,0.333,1.0,0.271,0.005
11/08/2022,07:36:30,0.337,1.0,0.277,0.006
11/08/2022,07:37:30,0.343,1.0,0.283,0.006
11/08/2022,07:38:30,0.348,1.0,0.289,0.006
11/08/2022,07:39:30,0.355,1.0,0.294,0.005
11/08/2022,07:40:31,0.359,1.0,0.3,0.006
11/08/2022,07:41:31,0.365,1.0,0.306,0.006
11/08/2022,07:42:39,0.369,1.0,0.313,0.007
11/08/2022,07:43:38,0.376,1.0,0.319,0.006
11/08/2022,07:44:31,0.380,1.0,0.325,0.006
11/08/2022,07:45:39,0.386,1.0,0.332,0.007
11/08/2022,07:46:31,0.391,1.0,0.338,0.006
11/08/2022,07:47:31,0.396,1.0,0.344,0.006
11/08/2022,07:48:30,0.400,1.0,0.351,0.007
11/08/2022,07:49:30,0.407,1.0,0.358,0.007
11/08/2022,07:50:31,0.413,1.0,0.365,0.007
11/08/2022,07:51:30,0.419,1.0,0.371,0.006
11/08/2022,07:52:31,0.425,1.0,0.379,0.008
11/08/2022,07:53:30,0.432,1.0,0.386,0.007
11/08/2022,07:54:30,0.437,1.0,0.393,0.007
11/08/2022,07:55:31,0.442,1.0,0.4,0.007
11/08/2022,07:56:39,0.448,1.0,0.409,0.009
11/08/2022,07:57:30,0.455,1.0,0.415,0.006
11/08/2022,07:58:31,0.460,1.0,0.423,0.008
11/08/2022,07:59:30,0.464,1.0,0.43,0.007
11/08/2022,08:00:31,0.472,1.0,0.438,0.008
11/08/2022,08:01:30,0.477,1.0,0.446,0.008
11/08/2022,08:02:31,0.485,1.0,0.454,0.008
11/08/2022,08:03:30,0.491,1.0,0.462,0.008
11/08/2022,08:04:31,0.498,1.0,0.471,0.009
11/08/2022,08:05:31,0.503,1.0,0.479,0.008
11/08/2022,08:06:30,0.509,1.0,0.487,0.008
11/08/2022,08:07:31,0.518,1.0,0.496,0.009
11/08/2022,08:08:39,0.524,1.0,0.506,0.01
11/08/2022,08:09:30,0.529,1.0,0.513,0.007
11/08/2022,08:10:31,0.537,1.0,0.522,0.009
11/08/2022,08:11:39,0.544,1.0,0.532,0.01
11/08/2022,08:12:30,0.551,1.0,0.54,0.008
11/08/2022,08:13:31,0.557,1.0,0.549,0.009
11/08/2022,08:14:31,0.563,1.0,0.559,0.01
11/08/2022,08:15:31,0.571,1.0,0.568,0.009
11/08/2022,08:16:30,0.577,1.0,0.578,0.01
11/08/2022,08:17:31,0.585,1.0,0.588,0.01
11/08/2022,08:18:31,0.591,1.0,0.597,0.009
11/08/2022,08:19:31,0.599,1.0,0.607,0.01
11/08/2022,08:20:30,0.607,1.0,0.617,0.01
11/08/2022,08:21:31,0.612,1.0,0.627,0.01
11/08/2022,08:22:30,0.621,1.0,0.638,0.011
11/08/2022,08:23:30,0.629,1.0,0.648,0.01
11/08/2022,08:24:31,0.637,1.0,0.659,0.011
11/08/2022,08:25:31,0.643,1.0,0.669,0.01
11/08/2022,08:26:30,0.652,1.0,0.68,0.011
11/08/2022,08:27:31,0.658,2.0,0.691,0.011
11/08/2022,08:28:31,0.665,2.0,0.702,0.011
11/08/2022,08:29:31,0.673,2.0,0.713,0.011
11/08/2022,08:30:30,0.682,2.0,0.725,0.012
11/08/2022,08:31:31,0.689,2.0,0.736,0.011
11/08/2022,08:32:30,0.697,2.0,0.747,0.011
11/08/2022,08:33:30,0.705,2.0,0.759,0.012
11/08/2022,08:34:31,0.714,2.0,0.771,0.012
11/08/2022,08:35:31,0.720,2.0,0.783,0.012
11/08/2022,08:36:31,0.730,2.0,0.795,0.012
11/08/2022,08:37:39,0.738,2.0,0.809,0.014
11/08/2022,08:38:31,0.744,2.0,0.82,0.011
11/08/2022,08:39:24,0.751,2.0,0.831,0.011
11/08/2022,08:40:31,0.761,2.0,0.845,0.014
11/08/2022,08:41:31,0.768,2.0,0.857,0.012
11/08/2022,08:42:39,0.777,2.0,0.872,0.015
11/08/2022,08:43:31,0.786,2.0,0.883,0.011
11/08/2022,08:44:31,0.795,2.0,0.897,0.014
11/08/2022,08:45:31,0.802,2.0,0.91,0.013
11/08/2022,08:46:31,0.811,2.0,0.924,0.014
11/08/2022,08:47:31,0.819,2.0,0.937,0.013
11/08/2022,08:48:30,0.827,2.0,0.95,0.013
11/08/2022,08:49:31,0.835,2.0,0.965,0.015
11/08/2022,08:50:31,0.844,2.0,0.978,0.013
11/08/2022,08:51:31,0.853,2.0,0.992,0.014
11/08/2022,08:52:31,0.861,2.0,1.007,0.015
11/08/2022,08:53:31,0.870,2.0,1.021,0.014
11/08/2022,08:54:30,0.878,2.0,1.036,0.015
11/08/2022,08:55:30,0.886,2.0,1.05,0.014
11/08/2022,08:56:31,0.896,2.0,1.065,0.015
11/08/2022,08:57:31,0.900,2.0,1.08,0.015
11/08/2022,08:58:31,0.908,2.0,1.095,0.015
11/08/2022,08:59:31,0.921,2.0,1.11,0.015
11/08/2022,09:00:31,0.930,2.0,1.126,0.016
11/08/2022,09:01:31,0.938,2.0,1.141,0.015
11/08/2022,09:02:31,0.947,2.0,1.157,0.016
11/08/2022,09:03:31,0.955,2.0,1.174,0.017
11/08/2022,09:04:31,0.965,2.0,1.189,0.015
11/08/2022,09:05:31,0.972,2.0,1.205,0.016
11/08/2022,09:06:31,0.981,2.0,1.221,0.016
11/08/2022,09:07:31,0.989,2.0,1.238,0.017
11/08/2022,09:08:39,0.999,2.0,1.257,0.019
11/08/2022,09:09:30,1.008,2.0,1.271,0.014
11/08/2022,09:10:32,1.010,2.0,1.288,0.017
11/08/2022,09:11:31,1.022,2.0,1.305,0.017
11/08/2022,09:12:30,1.031,2.0,1.322,0.017
11/08/2022,09:13:31,1.038,2.0,1.339,0.017
11/08/2022,09:14:31,1.043,2.0,1.357,0.018
11/08/2022,09:15:31,1.056,2.0,1.374,0.017
11/08/2022,09:16:30,1.064,2.0,1.392,0.018
11/08/2022,09:17:32,1.075,2.0,1.41,0.018
11/08/2022,09:18:31,1.085,2.0,1.428,0.018
11/08/2022,09:19:39,1.097,3.0,1.448,0.02
11/08/2022,09:20:31,1.104,3.0,1.464,0.016
11/08/2022,09:21:31,1.112,3.0,1.483,0.019
11/08/2022,09:22:31,1.118,3.0,1.501,0.018
11/08/2022,09:23:39,1.130,3.0,1.522,0.021
11/08/2022,09:24:31,1.136,3.0,1.539,0.017
11/08/2022,09:25:31,1.146,3.0,1.558,0.019
11/08/2022,09:26:30,1.153,3.0,1.577,0.019
11/08/2022,09:27:30,1.160,3.0,1.596,0.019
11/08/2022,09:28:30,1.171,3.0,1.616,0.02
11/08/2022,09:29:31,1.181,3.0,1.635,0.019
11/08/2022,09:30:31,1.187,3.0,1.655,0.02
11/08/2022,09:31:30,1.195,3.0,1.675,0.02
11/08/2022,09:32:31,1.201,3.0,1.695,0.02
11/08/2022,09:33:30,1.209,3.0,1.715,0.02
11/08/2022,09:34:31,1.216,3.0,1.735,0.02
11/08/2022,09:35:31,1.224,3.0,1.755,0.02
11/08/2022,09:36:31,1.231,3.0,1.776,0.021
11/08/2022,09:37:30,1.243,3.0,1.796,0.02
11/08/2022,09:38:30,1.249,3.0,1.817,0.021
11/08/2022,09:39:31,1.256,3.0,1.838,0.021
11/08/2022,09:40:31,1.263,3.0,1.859,0.021
11/08/2022,09:41:31,1.269,3.0,1.881,0.022
11/08/2022,09:42:39,1.279,3.0,1.905,0.024
11/08/2022,09:43:30,1.288,3.0,1.923,0.018
11/08/2022,09:44:31,1.299,3.0,1.944,0.021
11/08/2022,09:45:31,1.305,3.0,1.967,0.023
11/08/2022,09:46:31,1.314,3.0,1.988,0.021
11/08/2022,09:47:39,1.322,3.0,2.013,0.025
11/08/2022,09:48:31,1.331,3.0,2.032,0.019
11/08/2022,09:49:31,1.339,3.0,2.054,0.022
11/08/2022,09:50:39,1.351,3.0,2.08,0.026
11/08/2022,09:51:31,1.354,3.0,2.099,0.019
11/08/2022,09:52:31,1.360,3.0,2.122,0.023
11/08/2022,09:53:39,1.369,3.0,2.147,0.025
11/08/2022,09:54:31,1.376,3.0,2.167,0.02
11/08/2022,09:55:31,1.385,3.0,2.19,0.023
11/08/2022,09:56:31,1.391,3.0,2.213,0.023
11/08/2022,09:57:31,1.397,3.0,2.237,0.024
11/08/2022,09:58:39,1.405,3.0,2.263,0.026
11/08/2022,09:59:31,1.413,3.0,2.283,0.02
11/08/2022,10:00:31,1.416,3.0,2.307,0.024
11/08/2022,10:01:30,1.425,3.0,2.331,0.024
11/08/2022,10:02:31,1.430,3.0,2.354,0.023
11/08/2022,10:03:31,1.438,3.0,2.378,0.024
11/08/2022,10:04:31,1.448,3.0,2.402,0.024
11/08/2022,10:05:31,1.462,3.0,2.427,0.025
11/08/2022,10:06:31,1.468,3.0,2.451,0.024
11/08/2022,10:07:31,1.473,3.0,2.476,0.025
11/08/2022,10:08:31,1.485,3.0,2.5,0.024
11/08/2022,10:09:31,1.490,3.0,2.526,0.026
11/08/2022,10:10:40,1.503,3.0,2.554,0.028
11/08/2022,10:11:30,1.510,3.0,2.575,0.021
11/08/2022,10:12:31,1.517,3.0,2.6,0.025
11/08/2022,10:13:31,1.522,4.0,2.625,0.025